Starlink 1107

operational
NORAD ID: 44972 Int'l Des: 2020-001 Owner: SPXS Country: US Constellation: starlink
LEOCIRCULAR

关于 Starlink 1107

正在加载描述...

实时位置

正在加载3D地球...

即将过境

高度历史

Altitude vs Time

uPlot chart will show altitude changes over time

两行轨道根数

1 44972U 20001BL 25312.91667823 .00263329 00000-0 18901-2 0 9990
2 44972 53.0069 39.4087 0006316 334.5334 171.7095 15.72320813 6001
Epoch: Nov 8, 2025 • Age: 20 hours

当前状态

高度 359.3 km
速度 7.69 km/s
星下点 -19.60°S, 89.59°W
发射日期 Jan 7, 2020
运行时间 5.8 years
类型 internet

技术详情

分类 Payload
质量 260.00 kg
干质量 248.00 kg
总质量 260.00 kg
长度 0.20 m
直径 2.80 m
跨度 9.00 m
形状 Box + pan
制造商 SPXS
平台类型 Starlink
阶段状态 In Orbit
所有者/国家 SPXS/US

大型星座

Loading constellations...